This demonstration page uses our WeatherBlox Daily Observations layout. Learn more.

40.92945, -100.16068

Hourly Observations for October 13, 2019

Temp ( °F °C ) Dew Point ( °F °C ) Humidity (%) Winds ( mph kmh ) Pressure ( in mb ) Visibility ( mi km ) Precip ( " mm )
12:15 am 00:15 Clear 31 -0.3 27 -3 82 82 NW 5 7 30.02 1017 10 16.0934 0 0
12:35 am 00:35 Clear 31 -0.7 27 -3 85 85 NW 5 7 30.02 1017 10 16.0934 0 0
12:55 am 00:55 Clear 30 -1.1 26 -3.5 84 84 Calm 30.03 1017 10 16.0934 0 0
1:15 am 01:15 Clear 30 -1.1 26 -3.3 85 85 NNW 5 7 30.03 1017 10 16.0934 0 0
1:35 am 01:35 Clear 31 -0.8 26 -3.5 82 82 Calm 30.02 1017 10 16.0934 0 0
1:55 am 01:55 Clear 29 -1.6 26 -3.5 87 87 WNW 3 6 30.03 1017 10 16.0934 0 0
2:15 am 02:15 Clear 29 -1.5 26 -3.2 88 88 W 5 7 30.04 1017 10 16.0934 0 0
2:35 am 02:35 Clear 29 -1.4 26 -3.6 85 85 W 6 9 30.04 1017 10 16.0934 0 0
2:55 am 02:55 Clear 29 -1.6 26 -3.6 86 86 WNW 7 11 30.05 1018 10 16.0934 0 0
3:35 am 03:35 Clear 29 -1.6 26 -3.6 86 86 NW 6 9 30.05 1018 10 16.0934 0 0
3:55 am 03:55 Clear 28 -2.3 26 -3.5 92 92 NW 7 11 30.06 1018 10 16.0934 0 0
4:15 am 04:15 Clear 28 -2.5 25 -3.9 90 90 WNW 6 9 30.06 1018 10 16.0934 0 0
4:35 am 04:35 Clear 27 -2.6 25 -4 90 90 WNW 3 6 30.06 1018 10 16.0934 0 0
4:55 am 04:55 Clear 28 -2.3 25 -3.9 89 89 NW 6 9 30.07 1018 10 16.0934 0 0
5:15 am 05:15 Clear 28 -2.3 25 -3.8 90 90 WNW 6 9 30.07 1018 10 16.0934 0 0
5:35 am 05:35 Clear 28 -2.3 25 -3.9 89 89 WNW 5 7 30.07 1018 10 16.0934 0 0
6:15 am 06:15 Clear 27 -2.9 25 -4.1 92 92 WNW 5 7 30.08 1018 10 16.0934 0 0
6:35 am 06:35 Clear 26 -3.3 24 -4.6 91 91 W 3 6 30.09 1019 10 16.0934 0 0
6:55 am 06:55 Clear 26 -3.5 24 -4.5 93 93 WNW 5 7 30.09 1019 10 16.0934 0 0
7:15 am 07:15 Clear 26 -3.5 24 -4.3 94 94 WNW 3 6 30.09 1019 10 16.0934 0 0
7:35 am 07:35 Clear 25 -3.8 23 -4.8 93 93 WNW 3 6 30.1 1019 10 16.0934 0 0
7:55 am 07:55 Sunny 25 -3.8 24 -4.6 94 94 WNW 3 6 30.1 1019 10 16.0934 0 0
8:15 am 08:15 Sunny 26 -3.5 24 -4.5 93 93 W 3 6 30.1 1019 10 16.0934 0 0
8:35 am 08:35 Sunny 27 -2.6 25 -3.8 92 92 Calm 30.1 1019 10 16.0934 0 0
8:55 am 08:55 Sunny 30 -1.2 26 -3.1 87 87 WNW 3 6 30.1 1019 10 16.0934 0 0
9:15 am 09:15 Sunny 32 0.1 28 -2.3 84 84 WNW 3 6 30.09 1019 10 16.0934 0 0
9:35 am 09:35 Sunny 34 1.3 29 -1.8 80 80 WNW 3 6 30.07 1018 10 16.0934 0 0
9:55 am 09:55 Sunny 37 2.8 31 -0.7 78 78 W 3 6 30.07 1018 10 16.0934 0 0
10:15 am 10:15 Sunny 40 4.3 31 -0.5 71 71 W 5 7 30.05 1018 10 16.0934 0 0
10:35 am 10:35 Sunny 42 5.6 31 -0.5 65 65 W 3 6 30.05 1018 10 16.0934 0 0
10:55 am 10:55 Sunny 44 6.9 30 -0.9 58 58 Calm 30.04 1017 10 16.0934 0 0
11:15 am 11:15 Sunny 46 8 27 -2.6 47 47 WNW 3 6 30.04 1017 10 16.0934 0 0
11:35 am 11:35 Sunny 49 9.3 28 -2 45 45 W 3 6 30.02 1017 10 16.0934 0 0
11:55 am 11:55 Sunny 50 10.1 29 -1.7 44 44 WNW 6 9 30.01 1016 10 16.0934 0 0
12:15 pm 12:15 Sunny 52 11.3 29 -1.4 42 42 W 7 11 29.99 1016 10 16.0934 0 0
12:35 pm 12:35 Sunny 54 12.1 28 -2.1 37 37 WNW 6 9 29.97 1015 10 16.0934 0 0
12:55 pm 12:55 Sunny 55 12.7 28 -2.5 35 35 W 9 15 29.97 1015 10 16.0934 0 0
1:15 pm 13:15 Sunny 57 13.9 27 -2.6 32 32 NW 12 19 29.96 1014 10 16.0934 0 0
1:35 pm 13:35 Sunny 58 14.4 27 -2.9 30 30 WNW 9 15 29.94 1014 10 16.0934 0 0
1:55 pm 13:55 Sunny 58 14.3 26 -3.5 29 29 NW 10 17 29.93 1014 10 16.0934 0 0
2:15 pm 14:15 Sunny 59 15.2 26 -3.3 28 28 W 8 13 29.91 1013 10 16.0934 0 0
2:35 pm 14:35 Sunny 61 15.9 26 -3.2 27 27 W 5 7 29.9 1012 10 16.0934 0 0
2:55 pm 14:55 Sunny 61 16.2 24 -4.7 24 24 WNW 9 15 29.9 1012 10 16.0934 0 0
3:15 pm 15:15 Sunny 63 17 24 -4.6 23 23 WNW 10 17 29.88 1012 10 16.0934 0 0
3:35 pm 15:35 Sunny 64 17.5 24 -4.3 22 22 NW 12 19 29.87 1012 10 16.0934 0 0
3:55 pm 15:55 Sunny 64 17.6 24 -4.5 22 22 W 8 13 29.86 1011 10 16.0934 0 0
4:15 pm 16:15 Sunny 65 18.1 25 -3.8 22 22 NW 8 13 29.87 1011 10 16.0934 0 0
4:35 pm 16:35 Sunny 64 17.9 26 -3.6 23 23 NW 7 11 29.87 1012 10 16.0934 0 0
4:55 pm 16:55 Sunny 65 18.5 26 -3.4 22 22 NW 8 13 29.86 1011 10 16.0934 0 0
5:15 pm 17:15 Sunny 65 18.2 26 -3.6 23 23 WNW 3 6 29.86 1011 10 16.0934 0 0
5:35 pm 17:35 Sunny 65 18.2 26 -3.1 23 23 NNW 6 9 29.86 1011 10 16.0934 0 0
5:55 pm 17:55 Sunny 65 18.1 26 -3.2 23 23 WNW 3 6 29.86 1011 10 16.0934 0 0
6:15 pm 18:15 Sunny 64 17.7 28 -2.5 25 25 Calm 29.86 1011 10 16.0934 0 0
6:35 pm 18:35 Sunny 60 15.8 32 -0.2 34 34 ENE 3 6 29.88 1012 10 16.0934 0 0
6:55 pm 18:55 Sunny 58 14.2 31 -0.8 36 36 ENE 5 7 29.89 1012 10 16.0934 0 0
7:15 pm 19:15 Clear 53 11.9 31 -0.6 42 42 ESE 5 7 29.92 1013 10 16.0934 0 0
7:35 pm 19:35 Clear 51 10.7 30 -1.1 44 44 E 7 11 29.94 1014 10 16.0934 0 0
7:55 pm 19:55 Clear 49 9.7 29 -1.4 46 46 E 7 11 29.95 1014 10 16.0934 0 0
8:15 pm 20:15 Clear 48 8.7 29 -1.7 48 48 E 6 9 29.97 1015 10 16.0934 0 0
8:35 pm 20:35 Clear 45 7.3 29 -1.5 54 54 E 6 9 30 1016 10 16.0934 0 0
8:55 pm 20:55 Clear 44 6.5 29 -1.7 56 56 E 6 9 30 1016 10 16.0934 0 0
9:15 pm 21:15 Clear 43 6.1 28 -2 56 56 E 7 11 30.01 1016 10 16.0934 0 0
9:35 pm 21:35 Clear 44 6.5 28 -2.5 53 53 E 3 6 30 1016 10 16.0934 0 0
9:55 pm 21:55 Clear 41 5.2 28 -2.5 58 58 SSE 3 6 30.03 1017 10 16.0934 0 0
10:15 pm 22:15 Clear 40 4.3 28 -2.3 63 63 E 3 6 30.03 1017 10 16.0934 0 0
10:35 pm 22:35 Clear 40 4.3 28 -2.3 63 63 ESE 3 6 30.03 1017 10 16.0934 0 0
10:55 pm 22:55 Clear 40 4.4 27 -2.8 60 60 E 3 6 30.03 1017 10 16.0934 0 0
11:15 pm 23:15 Clear 40 4.4 27 -2.7 60 60 ESE 3 6 30.04 1017 10 16.0934 0 0
11:35 pm 23:35 Clear 38 3.1 28 -2.5 67 67 Calm 30.06 1018 10 16.0934 0 0
11:55 pm 23:55 Clear 37 2.5 27 -2.6 69 69 Calm 30.06 1018 10 16.0934 0 0

Powered by AerisWeather